Location: Newark
(21.1200°N, 73.4000°E)
Time: 13:38:31
(UTC+00:00)

SR - Pass Details

Date: 31 January 2020
Orbit: 576 x 880 km, 66.7° (Epoch: 28 February)

Event Time Altitude Azimuth Distance (km) Brightness Sun altitude
Rises 15:39:13 0° 226° (SW) 3,324 ? -38.1°
Reaches altitude 10° 15:41:52 10° 236° (SW) 2,434 ? -38.7°
Enters shadow 15:45:13 27° 268° (W) 1,592 ? -39.5°
Maximum altitude 15:46:49 31° 297° (WNW) 1,471 - -39.8°
Drops below altitude 10° 15:51:58 10° 358° (N) 2,528 - -41.0°
Sets 15:54:47 0° 9° (N) 3,473 - -41.7°
